User: anonymous   Login
Location: Unspecified
(0.0000°N, 0.0000°E)
Time: 06:43:06
(UTC+00:00)
Language:

NOAA 17 - Orbit

View from above orbital plane
View from above orbital plane
View from above satellite
View from above satellite

Ground track
Ground track

The orbit data is extracted from the following two-line orbital elements,

1 27453U 02032A   16181.56310259  .00000024  00000-0  27818-4 0  9992
2 27453  98.3839 154.7451 0012285 147.7712 212.4221 14.24949783728548
Epoch (UTC): 29 June 2016 13:30:52
Eccentricity: 0.0012285
inclination: 98.3839°
perigee height: 800 km
apogee height: 817 km
right ascension of ascending node: 154.7451°
argument of perigee: 147.7712°
revolutions per day: 14.24949783
mean anomaly at epoch: 212.4221°
orbit number at epoch: 72854

The dashed part of the orbit path shows where the satellite is in the earth's shadow,  

DLR